ATLAS 5 CENTAUR DEB, 44642

Orbit data source: Space-Track

ATLAS 5 CENTAUR DEB, 44642 is space debris in HEO originally from a launch on Wed, 17 Oct 2018 UTC launched from the Air Force Eastern Test Range (AFETR). Debris objects in space refer to the collection of defunct objects orbiting the Earth. Examples of debris include non-operational satellites, rocket bodies, and fragments generated from explosions, collisions, or faulty payload assembly.

Loading next visibility...
Identifier
44642, 2018-079C
Orbit
HEO
Country
Flag of USUS
Related business
Flag of USUnited Launch Alliance/Lockheed Martin (US)
Manufacturer
ULA Decatur
Mission
Spacecraft
Bus & Motor
Unknown
Mass
Unknown
Launch date (UTC)
2018-10-17 (8 years ago)
Launch vehicle
Unknown
Launch site
Air Force Eastern Test Range (AFETR)
Object type
Payload
Rocket body
Debris
Shape & HBR
Unknown shape, 1.1 m
Radar Cross Section
Large (>1 m²)

Expand to show TLE details & history
Last TLE update: 3 days ago

TLE from 3 days ago
0 ATLAS 5 CENTAUR DEB
1 44642U 18079C   26170.78306841 -.00000118  00000-0  00000-0 0  9999
2 44642  13.2350  27.2008 4697315 335.4359   7.9953  1.84542010 51691
Epoch: 2026-06-19T18:47Z
TLE epoch observation values (Epoch: 2026-06-19T18:47:37.110Z)
Latitude
0.0001°
Longitude
-162.72063°
Altitude
8,981.863 km
Speed
6.14 km/s
True Right ascension
01h 48m 45s
True Declination
0° 00' 00"
Sunlit
Object was in daylight at epoch
Visualization orbit readout
Latitude
Unknown
Longitude
Unknown
Altitude
Unknown
Speed
Unknown
Apparent Right ascension
Unknown
Apparent Declination
Unknown
Sunlit
N/A
Visualization observer readout
Local Sidereal Time
21:37:36
Azimuth
Unknown
Elevation
Unknown
Doppler factor
Unknown
Orbital elements
Apogee altitude
34,889.453 km
Perigee altitude
8,510.911 km
Semi-major axis
28,078.319 km
Eccentricity
0.46973
Inclination
13.235°
RAAN
27.2008°
Arg. of periapsis
335.4359°
True anomaly
24.60993°
Mean anomaly
7.9953°
Eccentric anomaly
14.92871°
Mean motion
0.4613 °/min
Orbital period
780.4 mins
BSTAR
0
Loading maneuver chart data...
Computing Atmospheric mass density...

Documentation

Showing up to 5 results
|